Content
SEND FEEDBACK

Daily
Averages
Monthly
Summary
France

TOULOUSE, FRANCE


Home > Europe > France
Elevation: 538 feet     Latitude: 43 33N     Longitude: 001 23E

WEATHER
 
SELECT A DAY
Number of Records: 277,573;   Date Range: 7/1/96 - 4/21/13
 
SHARE

PRINT THIS DATA

[ ← Previous Day ]
WEATHER ALMANAC - FEBRUARY 25, 2013
[ Next Day → ]
[ °C ]   °F
Weather ElementAverageHighLow
Temperature33 °F37.4 °F (3:00 pm)30.2 °F (11:00 pm)
Dewpoint30.3 °F32 °F (3:30 pm)28.4 °F (2:00 am)
Humidity89.8 %93 % (12:30 am)75 % (3:00 pm)
Barometer30.12 in30.18 in (7:00 pm)30.06 in (4:30 am)
Wind Speed10.6 mph13.8 mph (12:30 am)
Weather ElementAverage
Visibility4 mi
Wind DirectionWNW (278.6 °)

Weather ElementTotal
Precipitation---
Heating Degree Days31.2 (Base 65)
Averaged from 51 records on February 25, 2013
WEATHER CONDITIONS BREAKOUT
WIND DIRECTION BREAKOUT
WEATHER BY HOUR - FEBRUARY 25, 2013
[ °C ]   °F
Local TimeTemperatureDewpointHumidityBarometerVisibilityWind DirectionWind SpeedGust SpeedPrecipitationEventsConditions
12:30 AM32.0 °F30.2 °F93 %30.09 in2.5 miWest (270°)13.8 mphSnowLight Snow
1:00 AM31.0 °F29.0 °F92 %30.14 in3.0 miWest (270°)13.8 mphSnowLight Snow
1:00 AM32.0 °F30.2 °F93 %30.09 inWest (270°)13.8 mphSnowLight Snow
1:30 AM32.0 °F30.2 °F93 %30.09 in4.3 miWest (280°)12.7 mphSnowLight Snow
2:00 AM32.0 °F28.4 °F87 %30.09 in4.3 miWest (270°)11.5 mphSnowLight Snow
2:30 AM32.0 °F30.2 °F93 %30.09 in4.3 miWest (270°)11.5 mphSnowLight Snow
3:00 AM32.0 °F30.2 °F93 %30.09 inWest (280°)11.5 mphSnowLight Snow
3:30 AM32.0 °F30.2 °F93 %30.09 in1.3 miWest (280°)11.5 mphSnowSnow
4:00 AM32.0 °F30.2 °F93 %30.09 in0.9 miWest (280°)11.5 mphSnowHeavy Snow
4:30 AM32.0 °F30.2 °F93 %30.06 inWest (280°)11.5 mphSnowLight Snow
5:00 AM32.0 °F30.2 °F93 %30.06 inWest (280°)11.5 mphSnowLight Snow
5:30 AM32.0 °F30.2 °F93 %30.09 in1.7 miWest (280°)11.5 mphSnowSnow
6:00 AM32.0 °F30.2 °F93 %30.09 in1.9 miWest (280°)12.7 mphSnowLight Snow
6:30 AM32.0 °F30.2 °F93 %30.06 in1.7 miWest (280°)12.7 mphSnowLight Snow
7:00 AM32.0 °F30.0 °F88 %30.13 in2.0 miWest (280°)11.5 mphSnowLight Snow
7:00 AM32.0 °F30.2 °F93 %30.09 in1.6 miWest (280°)11.5 mphSnowLight Snow
7:30 AM32.0 °F30.2 °F93 %30.09 in3.1 miWest (280°)12.7 mphSnowLight Snow
8:00 AM32.0 °F30.2 °F93 %30.09 in1.6 miWest (280°)11.5 mphSnowLight Snow
8:30 AM32.0 °F30.2 °F93 %30.09 in1.7 miWest (280°)12.7 mphSnowSnow
9:00 AM32.0 °F30.2 °F93 %30.12 inWest (280°)12.7 mphSnowLight Snow
9:30 AM32.0 °F30.2 °F93 %30.12 in1.4 miWest (280°)11.5 mphSnowSnow
10:00 AM32.0 °F30.2 °F93 %30.12 in1.7 miWest (280°)10.4 mphSnowLight Snow
10:30 AM32.0 °F30.2 °F93 %30.12 in5.6 miWest (280°)9.2 mphSnowLight Snow
11:00 AM33.8 °F30.2 °F87 %30.12 in4.3 miWest (280°)11.5 mphSnowLight Snow
11:30 AM33.8 °F30.2 °F87 %30.12 inWest (280°)12.7 mphSnowLight Snow
12:00 PM33.8 °F30.2 °F87 %30.12 in2.2 miWest (280°)11.5 mphSnowLight Snow
12:30 PM33.8 °F30.2 °F87 %30.12 inWest (280°)11.5 mphSnowLight Snow
1:00 PM34.0 °F31.0 °F82 %30.17 in2.0 miWest (280°)13.8 mphSnowLight Snow
1:00 PM33.8 °F30.2 °F87 %30.12 inWest (280°)13.8 mphSnowLight Snow
1:30 PM33.8 °F30.2 °F87 %30.12 inWNW (290°)11.5 mphSnowLight Snow
2:00 PM35.6 °F30.2 °F81 %30.12 inWest (280°)11.5 mphMostly Cloudy
2:30 PM35.6 °F30.2 °F81 %30.12 in3.1 miWest (280°)11.5 mphMostly Cloudy
3:00 PM37.4 °F30.2 °F75 %30.12 in3.1 miWest (270°)10.4 mphMostly Cloudy
3:30 PM35.6 °F32.0 °F87 %30.12 in6.2 miWest (270°)11.5 mphMostly Cloudy
4:00 PM35.6 °F32.0 °F87 %30.12 in6.2 miWest (260°)12.7 mphMostly Cloudy
4:30 PM35.6 °F30.2 °F81 %30.12 in6.2 miWest (260°)11.5 mphMostly Cloudy
5:00 PM35.6 °F32.0 °F87 %30.12 in6.2 miWest (280°)11.5 mphRain-SnowLight Snow
5:30 PM33.8 °F32.0 °F93 %30.12 in6.2 miWest (280°)10.4 mphSnowLight Snow
6:00 PM33.8 °F32.0 °F93 %30.12 in6.2 miWNW (290°)10.4 mphRainLight Rain
6:30 PM33.8 °F30.2 °F87 %30.12 in5.6 miWNW (290°)8.1 mphSnowLight Snow
7:00 PM33.0 °F31.0 °F89 %30.18 in4.0 miWest (280°)9.2 mphSnowLight Snow
7:00 PM33.8 °F30.2 °F87 %30.12 in4.3 miWest (280°)9.2 mphSnowLight Snow
7:30 PM33.8 °F30.2 °F87 %30.15 in6.2 miWest (270°)6.9 mphRainLight Rain
8:00 PM33.8 °F32.0 °F93 %30.15 in6.2 miWest (280°)6.9 mphRainLight Rain
8:30 PM33.8 °F30.2 °F87 %30.15 in6.2 miWNW (290°)6.9 mphOvercast
9:00 PM33.8 °F32.0 °F93 %30.15 in5.0 miNW (310°)5.8 mphMostly Cloudy
9:30 PM32.0 °F30.2 °F93 %30.18 in6.2 miWNW (300°)5.8 mphMostly Cloudy
10:00 PM32.0 °F30.2 °F93 %30.18 in6.2 miWest (270°)5.8 mphMostly Cloudy
10:30 PM32.0 °F28.4 °F87 %30.18 in6.2 miWest (270°)5.8 mphMostly Cloudy
11:00 PM30.2 °F28.4 °F93 %30.15 in6.2 miWest (260°)4.6 mphPartly Cloudy
11:30 PM30.2 °F28.4 °F93 %30.15 in5.6 miWest (280°)2.3 mph
Hourly data recorded from LFBF, located miles away from Toulouse, France







STORIES FROM OUR PARTNERS